[Date Prev][Date Next][Thread Prev][Thread Next] - [Date Index][Thread Index][Author Index]

ISS 2Line Keps 02/16





ISS
1 25544U 98067A   02047.47234954  .00068698  00000-0  78189-3 0   838
2 25544  51.6390 299.7085 0005276  81.2590 275.0539 15.61624347185195




_________________________________________________________________
Get your FREE download of MSN Explorer at http://explorer.msn.com/intl.asp.

----
Via the sarex mailing list at AMSAT.ORG courtesy of AMSAT-NA.
To unsubscribe, send "unsubscribe sarex" to Majordomo@amsat.org



AMSAT Top AMSAT Home